Location: Buch
(49.7331°N, 12.1098°E)
Time: 01:08:31
(UTC+00:00)

Cosmos 923 Rocket - Pass Details

Date: 12 May 2021
Orbit: 758 x 786 km, 74.0° (Epoch: 18 June)

Event Time Altitude Azimuth Distance (km) Brightness Sun altitude
Rises 20:23:53 0° 338° (NNW) 3,245 8.8 -12.9°
Reaches altitude 10° 20:26:18 10° 342° (NNW) 2,319 7.7 -13.1°
Maximum altitude 20:31:30 60° 62° (ENE) 885 4.2 -13.6°
Enters shadow 20:35:01 21° 137° (SE) 1,696 5.1 -14.0°
